User: anonymous   Login
Location: Bouysse
(45.3674°N, 1.8947°E)
Time: 02:27:07
(UTC+00:00)
Language:

Cosmos 2154 Rocket - Orbit

View from above orbital plane
View from above orbital plane
View from above satellite
View from above satellite

Ground track
Ground track

The orbit data is extracted from the following two-line orbital elements,

1 21667U 91059B   20221.59778074 -.00000074 +00000-0 -93207-4 0  9998
2 21667 082.9036 233.9030 0019495 294.2770 186.9226 13.75099395453255
Epoch (UTC): 08 August 2020 14:20:48
Eccentricity: 0.0019495
inclination: 82.9036°
perigee height: 967 km
apogee height: 995 km
right ascension of ascending node: 233.9030°
argument of perigee: 294.2770°
revolutions per day: 13.75099395
mean anomaly at epoch: 186.9226°
orbit number at epoch: 45325

The dashed part of the orbit path shows where the satellite is in the earth's shadow,  

DLR